Погода в Михайловке

Россия / Республика Башкортостан     53°26′48″N   58°43′23″E
темп.,
°C
ветер,
м/с
пор.,
м/с
влажн.,
%
обл.,
%
осадки,
мм/ч
давл.,
гПа
погр.,
м
12 апреля, пн
пн1223:00+1юз239991 0.0 103777
02:000юз229422 0.0 103743
05:00−1з119137 0.0 103710
08:00+2з11865 0.0 103621
11:00+8всв117135 0.0 1036103
14:00+11всв226821 0.0 1035245
17:00+12св247296 0.0 1035381
20:00+8ссв338839 0.0 103727
13 апреля, вт
вт1323:00+6ссв339011 0.0 103832
02:00+5ссв3699100 0.0 1039163
05:00+4ссв359776 0.0 1041149
08:00+5ссв249136 0.0 1041159
11:00+8св337729 0.0 1041557
14:00+11всв33608 0.0 1039908
17:00+13в33565 0.0 1038999
20:00+10вюв22705 0.0 103711
14 апреля, ср
ср1423:00+8ююв117953 0.0 103812
02:00+6ю118578 0.0 103710
05:00+5ююз118927 0.0 103710
08:00+6ю11855 0.0 103664
11:00+10ююв22605 0.0 1034444
14:00+13юв22405 0.0 1032718
17:00+14вюв22375 0.0 1030808
20:00+11юв11515 0.0 102910
15 апреля, чт
чт1523:00+8ю22644 0.0 103011
02:00+6ююз22705 0.0 102910
05:00+5юз11725 0.0 102910
08:00+7зюз11655 0.0 102827
11:00+12ю23455 0.0 1026394
14:00+15ю34355 0.0 1024750
17:00+16ю44335 0.0 1022890
20:00+12ю33495 0.0 102128
16 апреля, пт
пт1623:00+9зюз225752 0.0 102014
02:00+8зюз225844 0.0 101911
05:00+6з226014 0.0 101810
08:00+8зсз115718 0.0 101724
11:00+14з11385 0.0 1015486
14:00+17з13265 0.0 10121515
17:00+18зсз45265 0.0 10102021
20:00+14зсз36460 0.0 101089